Weather History for Billings, MT

Change the Weather History Date:

Saturday, December 8, 2012

  Actual Average Record
Temperature  
Mean Temperature 24 °F 27 °F  
Max Temperature 36 °F 36 °F 66 °F (1939)
Min Temperature 11 °F 19 °F -25 °F (1972)
Degree Days  
Heating Degree Days 41 38  
Month to date heating degree days 194 295  
Since 1 July heating degree days 1576 1923  
Cooling Degree Days 0 0  
Month to date cooling degree days 0 0  
Year to date cooling degree days 958 636  
Moisture  
Dew Point 13 °F    
Average Humidity 68    
Maximum Humidity 84    
Minimum Humidity 51    
Precipitation  
Precipitation 0.02 in 0.02 in 0.24 in (1983)
Month to date precipitation 0.07 0.14  
Year to date precipitation 6.93 13.30  
Snow  
Snow 0.40 in 0.20 in 3.20 in (1945)
Month to date snowfall 0.9 2.0  
Since 1 July snowfall 12.5 13.7  
Snow Depth 0.00 in    
Sea Level Pressure  
Sea Level Pressure 29.97 in    
Wind  
Wind Speed 14 mph (NNW)    
Max Wind Speed 37 mph    
Max Gust Speed 43 mph    
Visibility 7 miles    
Events Snow    
T = Trace of Precipitation, MM = Missing Value Source: NWS Daily Summary

Daily Weather History Graph

Daily Weather History Graph

Search for Another Location

Airport:

Trip Planner

Search our weather history database for the weather conditions in past years. The results will help you decide how hot, cold, wet, or windy it might be!

Date:

Astronomy

Dec. 08, 2012 Rise Set
Actual Time 7:43 AM MST 4:29 PM MST
Civil Twilight 7:08 AM MST 5:03 PM MST
Nautical Twilight 6:31 AM MST 5:41 PM MST
Astronomical Twilight 5:55 AM MST 6:17 PM MST
Moon 1:57 AM MST (12/8) 1:13 PM MST (12/8)
Length of Visible Light 9h 54m
Length of Day
8h 46m
Waning Crescent, 27% of the Moon is Illuminated
Dec 8
Waning Crescent
Dec 13
New
Dec 19
First Quarter
Dec 28
Full
Jan 4
Last Quarter

Hourly Weather History & Observations

Time (MST) Temp. Windchill Dew Point Humidity Pressure Visibility Wind Dir Wind Speed Gust Speed Precip Events Conditions
12:53 AM 33.1 °F 23.0 °F 18.0 °F 54% 29.63 in 10.0 mi WSW 15.0 mph - N/A   Mostly Cloudy
1:53 AM 32.0 °F 20.8 °F 18.0 °F 56% 29.61 in 10.0 mi West 17.3 mph - N/A   Partly Cloudy
2:53 AM 34.0 °F 23.4 °F 18.0 °F 52% 29.64 in 10.0 mi West 17.3 mph - N/A   Mostly Cloudy
3:42 AM 33.8 °F 22.5 °F 21.2 °F 60% 29.59 in 5.0 mi WNW 19.6 mph 42.6 mph 0.00 in Snow Light Snow
3:51 AM 35.6 °F 24.2 °F 17.6 °F 48% 29.58 in 9.0 mi NW 21.9 mph 39.1 mph 0.00 in Snow Light Snow
3:53 AM 35.1 °F 24.1 °F 18.0 °F 50% 29.64 in 9.0 mi NW 19.6 mph 39.1 mph 0.00 in Snow Light Snow
4:53 AM 30.9 °F 21.7 °F 23.0 °F 72% 29.68 in 10.0 mi WSW 11.5 mph - 0.00 in   Overcast
5:53 AM 30.9 °F 21.7 °F 23.0 °F 72% 29.70 in 10.0 mi WSW 11.5 mph 17.3 mph N/A   Scattered Clouds
6:53 AM 30.0 °F 19.5 °F 19.9 °F 66% 29.72 in 10.0 mi West 13.8 mph - N/A   Partly Cloudy
7:53 AM 28.0 °F 17.0 °F 15.1 °F 58% 29.75 in 10.0 mi West 13.8 mph - N/A   Partly Cloudy
9:53 AM 27.0 °F 11.3 °F 16.0 °F 63% 29.81 in 10.0 mi NW 27.6 mph 42.6 mph N/A   Overcast
10:38 AM 24.8 °F 9.3 °F 17.6 °F 74% 29.76 in 1.0 mi NNW 24.2 mph 32.2 mph 0.00 in Snow Light Snow
10:44 AM 23.0 °F 7.6 °F 17.6 °F 80% 29.77 in 0.8 mi NNW 21.9 mph 29.9 mph 0.00 in Snow Light Snow
10:53 AM 21.9 °F 7.3 °F 18.0 °F 85% 29.88 in 1.0 mi NNW 18.4 mph 29.9 mph 0.00 in Snow Light Snow
11:17 AM 21.2 °F 6.0 °F 17.6 °F 86% 29.79 in 4.0 mi NNW 19.6 mph 26.5 mph 0.00 in Snow Light Snow
11:23 AM 23.0 °F 8.3 °F 17.6 °F 80% 29.79 in 8.0 mi NNW 19.6 mph 26.5 mph 0.00 in   Overcast
11:53 AM 23.0 °F 8.3 °F 14.0 °F 68% 29.91 in 10.0 mi North 19.6 mph 33.4 mph 0.00 in   Mostly Cloudy
12:53 PM 21.9 °F 9.2 °F 15.1 °F 75% 29.96 in 9.0 mi NNW 13.8 mph - 0.00 in Snow Light Snow
1:53 PM 21.9 °F 9.2 °F 14.0 °F 72% 30.00 in 9.0 mi North 13.8 mph - 0.00 in   Overcast
2:36 PM 19.4 °F 4.5 °F 10.4 °F 68% 29.92 in 9.0 mi NNE 17.3 mph - 0.00 in Snow Light Snow
2:53 PM 19.0 °F 6.8 °F 10.9 °F 71% 30.05 in 9.0 mi North 11.5 mph - 0.00 in Snow Light Snow
3:26 PM 19.4 °F 6.0 °F 10.4 °F 68% 29.98 in 6.0 mi North 13.8 mph - 0.00 in Snow Light Snow
3:53 PM 19.0 °F 4.0 °F 8.1 °F 62% 30.11 in 9.0 mi North 17.3 mph 23.0 mph 0.00 in Snow Light Snow
4:17 PM 17.6 °F 2.7 °F 8.6 °F 68% 30.02 in 9.0 mi NNE 16.1 mph - 0.00 in   Mostly Cloudy
4:53 PM 17.1 °F 0.6 °F 8.1 °F 68% 30.18 in 10.0 mi North 19.6 mph - 0.00 in   Mostly Cloudy
5:46 PM 15.8 °F 4.2 °F 6.8 °F 68% 30.09 in 9.0 mi NNE 9.2 mph - 0.00 in Snow Light Snow
5:53 PM 15.8 °F 1.4 °F 6.8 °F 68% 30.09 in 9.0 mi NNE 13.8 mph 18.4 mph N/A Snow Light Snow
6:28 PM 15.8 °F 1.4 °F 6.8 °F 68% 30.11 in 9.0 mi NNE 13.8 mph - 0.00 in Snow Light Snow
6:40 PM 15.8 °F 0.3 °F 6.8 °F 68% 30.11 in 7.0 mi NNE 16.1 mph - 0.00 in Snow Light Snow
6:53 PM 15.1 °F 1.1 °F 8.1 °F 74% 30.25 in 2.5 mi North 12.7 mph - 0.00 in Snow Light Snow
7:02 PM 15.8 °F 5.1 °F 8.6 °F 73% 30.13 in 3.0 mi NNE 8.1 mph - 0.00 in Snow Light Snow
7:16 PM 15.8 °F 5.1 °F 8.6 °F 73% 30.13 in 2.5 mi NNE 8.1 mph - 0.00 in Snow Light Snow
7:41 PM 15.8 °F 2.7 °F 8.6 °F 73% 30.15 in 3.0 mi NNE 11.5 mph - 0.01 in Snow Light Snow
7:50 PM 14.0 °F 3.9 °F 8.6 °F 79% 30.15 in 1.8 mi NNE 6.9 mph 17.3 mph 0.01 in Snow Light Snow
7:53 PM 14.0 °F 6.5 °F 9.0 °F 80% 30.30 in 2.0 mi NNE 4.6 mph - 0.01 in Snow Light Snow
8:00 PM 14.0 °F 3.9 °F 8.6 °F 79% 30.16 in 2.0 mi NE 6.9 mph - 0.00 in Snow Light Snow
8:53 PM 12.9 °F -0.9 °F 9.0 °F 84% 30.32 in 2.0 mi North 11.5 mph - 0.01 in Snow Light Snow
9:12 PM 12.2 °F 1.7 °F 8.6 °F 85% 30.18 in 4.0 mi NNE 6.9 mph - 0.00 in Snow Light Snow
9:53 PM 12.0 °F 2.7 °F 8.1 °F 84% 30.35 in 4.0 mi NNE 5.8 mph - 0.00 in Snow Light Snow
10:53 PM 12.0 °F - 9.0 °F 88% 30.38 in 10.0 mi Calm Calm - 0.00 in   Overcast
11:53 PM 12.9 °F - 9.0 °F 84% 30.39 in 10.0 mi Calm Calm - N/A   Overcast